{"data":{"norad_id":56719,"epoch":"2026-09-19T17:55:22.164384Z","epoch_age_seconds":83393,"freshness":"FRESH","line1":"1 56719U 23068K   26262.74678431 -.00000047  00000+0 -15968-3 0  9999","line2":"2 56719  87.8993 240.3459 0001834  88.7987 271.3353 13.15548267161851","mean_motion":13.15548267,"eccentricity":0.0001834,"inclination_deg":87.8993,"raan_deg":240.3459,"arg_perigee_deg":88.7987,"mean_anomaly_deg":271.3353,"bstar":-0.00015968,"rev_number":16185,"period_min":109.46006589966,"perigee_km":1200.3816992346,"apogee_km":1203.1620098024,"semimajor_km":7579.9088545185,"source":"CELESTRAK","updated_at":"2026-09-20T09:00:44.796176Z"}}